Tracking 19717 objects as of 24-Jun-2019
HD Live streaming from Space Station
objects crossing your sky now

THORAD AGENA D DEB

Track THORAD AGENA D DEB now!
10-day predictions


NORAD ID: 42537
Int'l Code: 1970-025ST
Perigee: 964.3 km
Apogee: 987.7 km
Inclination: 100.0 °
Period: 104.5 minutes
Semi major axis: 7346 km
RCS: Unknown
Launch date: April 8, 1970
Source: United States (US)
Launch site: AIR FORCE WESTERN TEST RANGE (AFWTR)

Note: This is SATELLITE DEBRIS
aabbcc
Your satellite tracking list
Your tracking list is empty




NASA's NSSDC Master Catalog

Two Line Element Set (TLE):
1 42537U 70025ST  19130.98431465  .00000182  00000-0  22845-3 0  9994
2 42537 100.0363 196.5362 0015945 114.6801 245.6168 13.78604223694954
Source of the keplerian elements: AFSPC